This is the latest recevied weather packets stored in our database for station/object DO7ZT-13. If no packets are shown the sender has not sent any weather packets the latest 1 day(s).
| Time | Temp. | Humidity | Pressure | Rain* | Wind** | Luminosity | Snow |
|---|---|---|---|---|---|---|---|
| 1777975520 | 20° C | 61% | 1008.5 hPa | 0 mm | 0.89 m/s, 256° | - | - |
| 1777975207 | 20° C | 59% | 1008.6 hPa | 0 mm | 0.45 m/s, 336° | - | - |
| 1777974920 | 20° C | 59% | 1008.6 hPa | 0 mm | 0.89 m/s, 308° | - | - |
| 1777974607 | 20° C | 59% | 1008.6 hPa | 0 mm | 0 m/s | - | - |
| 1777974333 | 18.89° C | 61% | 1008.7 hPa | 0 mm | 0.45 m/s, 252° | - | - |
| 1777974020 | 18.89° C | 64% | 1008.7 hPa | 0 mm | 0.45 m/s, 255° | - | - |
| 1777973708 | 18.89° C | 63% | 1008.7 hPa | 0 mm | 0.45 m/s, 306° | - | - |
| 1777973420 | 18.89° C | 59% | 1008.7 hPa | 0 mm | 0.89 m/s, 306° | - | - |
| 1777973108 | 18.89° C | 58% | 1008.7 hPa | 0 mm | 0.89 m/s, 330° | - | - |
| 1777972820 | 18.89° C | 58% | 1008.7 hPa | 0 mm | 0.89 m/s, 336° | - | - |
| 1777972508 | 18.89° C | 59% | 1008.9 hPa | 0 mm | 0.89 m/s, 307° | - | - |
| 1777972221 | 18.89° C | 58% | 1008.9 hPa | 0 mm | 0.89 m/s, 303° | - | - |
| 1777971908 | 18.89° C | 59% | 1008.9 hPa | 0 mm | 0 m/s | - | - |
| 1777971620 | 18.89° C | 57% | 1008.9 hPa | 0 mm | 0.89 m/s, 257° | - | - |
| 1777971308 | 18.89° C | 59% | 1008.9 hPa | 0 mm | 0.89 m/s, 342° | - | - |
| 1777971020 | 18.89° C | 61% | 1008.9 hPa | 0 mm | 0.89 m/s, 342° | - | - |
| 1777970708 | 17.78° C | 61% | 1009 hPa | 0 mm | 0.45 m/s, 330° | - | - |
| 1777970420 | 17.78° C | 64% | 1009 hPa | 0 mm | 0.45 m/s, 330° | - | - |
| 1777970107 | 17.78° C | 66% | 1009 hPa | 0 mm | 0.89 m/s, 309° | - | - |
| 1777969820 | 17.78° C | 65% | 1008.9 hPa | 0 mm | 0.89 m/s, 318° | - | - |
| 1777969507 | 17.78° C | 64% | 1008.9 hPa | 0 mm | 0.89 m/s, 307° | - | - |
| 1777969220 | 18.89° C | 64% | 1008.9 hPa | 0 mm | 0.45 m/s, 296° | - | - |
| 1777968907 | 18.89° C | 64% | 1009 hPa | 0 mm | 0 m/s | - | - |
| 1777968620 | 17.78° C | 65% | 1009 hPa | 0 mm | 0.89 m/s, 324° | - | - |
| 1777968308 | 17.22° C | 66% | 1009 hPa | 0 mm | 0 m/s | - | - |
* Rain latest hour (hover to see other rain measurements)
** Current wind speed in m/s (hover to see current wind gust speed)